UAL1642 KSAN-KSFO

Flight info

Callsign UAL1642
Flight time 1h 5m
Altitude 36000
Route PADRZ2 IKAYE RIZIN SPLNT STOKD SERFR SERFR4
Aircraft A320/M-SDE3FGHIRWY/LB1

Departure

Time 2026-04-25 19:35
Airport San Diego International Airport (KSAN)

Arrival

Time 2026-04-25 20:40
Airport San Francisco International Airport (KSFO)
Time Latitude Longitude Altitude Speed Heading
2026-04-25 19:03 32.73408 -117.20116 34 ft 0 kts 165°
2026-04-25 19:24 32.73409 -117.20116 25 ft 1 kts 165°
2026-04-25 19:25 32.73458 -117.20127 26 ft 4 kts 176°
2026-04-25 19:25 32.73485 -117.20128 26 ft 4 kts 180°
2026-04-25 19:25 32.73512 -117.20128 28 ft 4 kts 173°
2026-04-25 19:26 32.73534 -117.20136 29 ft 4 kts 121°
2026-04-25 19:26 32.73537 -117.20140 29 ft 1 kts 106°
2026-04-25 19:28 32.73535 -117.20132 26 ft 3 kts 106°
2026-04-25 19:28 32.73525 -117.20091 26 ft 7 kts 105°
2026-04-25 19:28 32.73508 -117.20020 26 ft 10 kts 105°
2026-04-25 19:28 32.73487 -117.19929 27 ft 12 kts 106°
2026-04-25 19:29 32.73461 -117.19825 27 ft 14 kts 106°
2026-04-25 19:29 32.73430 -117.19697 31 ft 18 kts 106°
2026-04-25 19:29 32.73393 -117.19545 27 ft 20 kts 106°
2026-04-25 19:29 32.73352 -117.19375 28 ft 23 kts 106°
2026-04-25 19:30 32.73306 -117.19185 24 ft 22 kts 106°
2026-04-25 19:30 32.73263 -117.19010 26 ft 22 kts 106°
2026-04-25 19:30 32.73219 -117.18827 28 ft 24 kts 106°
2026-04-25 19:30 32.73172 -117.18633 30 ft 26 kts 106°
2026-04-25 19:31 32.73118 -117.18411 28 ft 29 kts 106°
2026-04-25 19:31 32.73069 -117.18211 27 ft 25 kts 106°
2026-04-25 19:31 32.73017 -117.17996 25 ft 25 kts 106°
2026-04-25 19:31 32.72978 -117.17837 24 ft 19 kts 107°
2026-04-25 19:32 32.72949 -117.17720 24 ft 14 kts 96°
2026-04-25 19:32 32.72952 -117.17689 24 ft 0 kts 76°
2026-04-25 19:33 32.72952 -117.17686 24 ft 1 kts 76°
2026-04-25 19:33 32.72959 -117.17660 27 ft 6 kts 73°
2026-04-25 19:33 32.72996 -117.17607 28 ft 12 kts 17°
2026-04-25 19:34 32.73044 -117.17674 26 ft 12 kts 287°
2026-04-25 19:34 32.73135 -117.18060 26 ft 85 kts 286°
2026-04-25 19:34 32.73352 -117.18966 29 ft 140 kts 285°
2026-04-25 19:34 32.73634 -117.20107 557 ft 146 kts 284°
2026-04-25 19:35 32.74057 -117.21213 1236 ft 149 kts 300°
2026-04-25 19:35 32.74634 -117.22259 1876 ft 153 kts 302°
2026-04-25 19:35 32.75276 -117.23370 2246 ft 174 kts 302°
2026-04-25 19:35 32.75977 -117.24624 2558 ft 197 kts 301°
2026-04-25 19:36 32.76774 -117.26072 2965 ft 222 kts 301°
2026-04-25 19:36 32.77663 -117.27699 3553 ft 247 kts 301°
2026-04-25 19:36 32.78622 -117.29458 4530 ft 258 kts 302°
2026-04-25 19:36 32.79608 -117.31260 5643 ft 262 kts 302°
2026-04-25 19:37 32.80660 -117.33057 6673 ft 267 kts 305°
2026-04-25 19:37 32.81795 -117.34838 7614 ft 273 kts 305°
2026-04-25 19:37 32.82971 -117.36626 8598 ft 276 kts 304°
2026-04-25 19:37 32.84165 -117.38432 9620 ft 279 kts 303°
2026-04-25 19:38 32.85356 -117.40249 10385 ft 290 kts 302°
2026-04-25 19:38 32.86630 -117.42221 10724 ft 310 kts 302°
2026-04-25 19:38 32.87958 -117.44282 11392 ft 317 kts 302°
2026-04-25 19:38 32.89310 -117.46374 12190 ft 320 kts 301°
2026-04-25 19:39 32.90670 -117.48477 12990 ft 323 kts 301°
2026-04-25 19:39 32.92044 -117.50605 13768 ft 326 kts 300°
2026-04-25 19:39 32.93430 -117.52756 14480 ft 329 kts 300°
2026-04-25 19:39 32.94826 -117.54929 15154 ft 332 kts 300°
2026-04-25 19:40 32.96234 -117.57124 15822 ft 336 kts 300°
2026-04-25 19:40 32.97657 -117.59345 16481 ft 339 kts 300°
2026-04-25 19:40 32.99078 -117.61563 17138 ft 343 kts 300°
2026-04-25 19:40 33.00532 -117.63835 17815 ft 347 kts 300°
2026-04-25 19:41 33.01999 -117.66130 18467 ft 350 kts 300°
2026-04-25 19:41 33.03481 -117.68451 19055 ft 353 kts 300°
2026-04-25 19:41 33.04977 -117.70792 19660 ft 357 kts 300°
2026-04-25 19:41 33.05999 -117.72340 20065 ft 362 kts 304°
2026-04-25 19:42 33.08512 -117.75123 20864 ft 373 kts 313°
2026-04-25 19:42 33.10502 -117.77131 21450 ft 377 kts 313°
2026-04-25 19:42 33.12477 -117.79138 22014 ft 380 kts 313°
2026-04-25 19:42 33.14496 -117.81199 22592 ft 383 kts 313°
2026-04-25 19:43 33.16526 -117.83274 23168 ft 387 kts 313°
2026-04-25 19:43 33.18581 -117.85376 23718 ft 390 kts 313°
2026-04-25 19:43 33.20613 -117.87533 24220 ft 391 kts 310°
2026-04-25 19:43 33.22579 -117.89785 24722 ft 392 kts 308°
2026-04-25 19:44 33.24499 -117.92100 25229 ft 393 kts 307°
2026-04-25 19:44 33.26407 -117.94448 25758 ft 395 kts 307°
2026-04-25 19:44 33.28329 -117.96809 26284 ft 397 kts 307°
2026-04-25 19:44 33.30269 -117.99169 26773 ft 399 kts 307°
2026-04-25 19:45 33.32202 -118.01498 27234 ft 401 kts 307°
2026-04-25 19:45 33.34174 -118.03858 27690 ft 403 kts 307°
2026-04-25 19:45 33.36173 -118.06241 28145 ft 405 kts 307°
2026-04-25 19:45 33.38172 -118.08626 28607 ft 407 kts 307°
2026-04-25 19:46 33.40186 -118.11032 29002 ft 411 kts 306°
2026-04-25 19:46 33.42210 -118.13455 29426 ft 413 kts 306°
2026-04-25 19:46 33.44246 -118.15895 29855 ft 415 kts 306°
2026-04-25 19:46 33.46287 -118.18346 30253 ft 417 kts 306°
2026-04-25 19:47 33.48316 -118.20785 30605 ft 419 kts 306°
2026-04-25 19:47 33.50380 -118.23268 30967 ft 422 kts 306°
2026-04-25 19:47 33.52456 -118.25767 31325 ft 424 kts 306°
2026-04-25 19:47 33.54541 -118.28279 31668 ft 426 kts 306°
2026-04-25 19:48 33.56636 -118.30804 32172 ft 426 kts 306°
2026-04-25 19:48 33.58724 -118.33316 32733 ft 425 kts 306°
2026-04-25 19:48 33.60804 -118.35820 33310 ft 424 kts 305°
2026-04-25 19:48 33.62882 -118.38327 33887 ft 423 kts 305°
2026-04-25 19:49 33.64954 -118.40825 34304 ft 422 kts 304°
2026-04-25 19:49 33.66325 -118.42480 34564 ft 422 kts 304°
2026-04-25 19:49 33.69057 -118.45785 35102 ft 420 kts 304°
2026-04-25 19:49 33.71111 -118.48271 35508 ft 418 kts 304°
2026-04-25 19:50 33.75194 -118.53224 35987 ft 414 kts 304°
2026-04-25 19:50 33.77210 -118.55670 35998 ft 411 kts 304°
2026-04-25 19:51 33.81210 -118.60540 35996 ft 408 kts 304°
2026-04-25 19:51 33.85172 -118.65370 35996 ft 408 kts 304°
2026-04-25 19:52 33.89166 -118.70239 35997 ft 409 kts 304°
2026-04-25 19:52 33.93162 -118.75112 36004 ft 409 kts 304°
2026-04-25 19:53 33.97160 -118.79993 35997 ft 409 kts 304°
2026-04-25 19:53 34.01161 -118.84887 35995 ft 410 kts 304°
2026-04-25 19:54 34.05159 -118.89787 35997 ft 410 kts 304°
2026-04-25 19:54 34.09134 -118.94665 36022 ft 410 kts 304°
2026-04-25 19:55 34.13129 -118.99590 36020 ft 410 kts 303°
2026-04-25 19:55 34.14903 -119.02215 36017 ft 399 kts 295°
2026-04-25 19:55 34.16384 -119.05027 36012 ft 396 kts 292°
2026-04-25 19:56 34.19295 -119.10681 35977 ft 397 kts 292°
2026-04-25 19:56 34.22193 -119.16304 36003 ft 397 kts 292°
2026-04-25 19:57 34.25105 -119.21971 36022 ft 397 kts 292°
2026-04-25 19:57 34.28025 -119.27657 36015 ft 399 kts 292°
2026-04-25 19:58 34.30950 -119.33368 35994 ft 400 kts 292°
2026-04-25 19:58 34.33866 -119.39054 35987 ft 401 kts 292°
2026-04-25 19:59 34.36801 -119.44790 35981 ft 401 kts 292°
2026-04-25 19:59 34.39728 -119.50545 35990 ft 401 kts 292°
2026-04-25 20:00 34.43257 -119.55917 35994 ft 417 kts 305°
2026-04-25 20:00 34.47348 -119.60919 35962 ft 418 kts 305°
2026-04-25 20:01 34.53482 -119.68455 35952 ft 419 kts 305°
2026-04-25 20:01 34.57550 -119.73469 35965 ft 420 kts 305°
2026-04-25 20:02 34.61647 -119.78519 35964 ft 420 kts 305°
2026-04-25 20:02 34.65740 -119.83576 35998 ft 420 kts 305°
2026-04-25 20:03 34.69828 -119.88644 35987 ft 420 kts 305°
2026-04-25 20:03 34.73893 -119.93697 35996 ft 421 kts 305°
2026-04-25 20:04 34.77991 -119.98787 35991 ft 421 kts 305°
2026-04-25 20:04 34.82096 -120.03892 35986 ft 422 kts 305°
2026-04-25 20:05 34.86200 -120.09014 35994 ft 423 kts 305°
2026-04-25 20:05 34.90282 -120.14109 36033 ft 423 kts 306°
2026-04-25 20:06 34.94396 -120.19253 36014 ft 424 kts 306°
2026-04-25 20:06 34.98515 -120.24412 36008 ft 425 kts 306°
2026-04-25 20:07 35.02646 -120.29585 36004 ft 426 kts 306°
2026-04-25 20:07 35.06744 -120.34728 36019 ft 426 kts 306°
2026-04-25 20:08 35.10935 -120.39873 36024 ft 429 kts 308°
2026-04-25 20:08 35.15356 -120.44814 36024 ft 432 kts 310°
2026-04-25 20:09 35.19838 -120.49705 36010 ft 432 kts 310°
2026-04-25 20:09 35.24281 -120.54631 36019 ft 432 kts 310°
2026-04-25 20:10 35.28679 -120.59582 36014 ft 433 kts 310°
2026-04-25 20:10 35.33104 -120.64591 36008 ft 433 kts 310°
2026-04-25 20:11 35.37538 -120.69600 36010 ft 434 kts 310°
2026-04-25 20:11 35.41980 -120.74606 36016 ft 434 kts 310°
2026-04-25 20:12 35.46414 -120.79622 36017 ft 434 kts 310°
2026-04-25 20:12 35.49445 -120.82850 36016 ft 439 kts 316°
2026-04-25 20:13 35.55944 -120.88870 36020 ft 440 kts 316°
2026-04-25 20:13 35.60833 -120.93402 36026 ft 440 kts 316°
2026-04-25 20:14 35.65710 -120.97941 36033 ft 440 kts 316°
2026-04-25 20:14 35.70562 -121.02458 36017 ft 441 kts 316°
2026-04-25 20:15 35.75459 -121.07011 36016 ft 441 kts 316°
2026-04-25 20:15 35.80359 -121.11581 35985 ft 442 kts 316°
2026-04-25 20:16 35.85267 -121.16184 35972 ft 445 kts 316°
2026-04-25 20:16 35.90165 -121.20785 35818 ft 446 kts 316°
2026-04-25 20:17 35.92627 -121.23095 34793 ft 446 kts 316°
2026-04-25 20:17 35.95112 -121.25430 33578 ft 451 kts 317°
2026-04-25 20:17 35.97603 -121.27767 32486 ft 448 kts 316°
2026-04-25 20:17 36.00068 -121.30082 31558 ft 442 kts 316°
2026-04-25 20:18 36.02482 -121.32344 30970 ft 427 kts 315°
2026-04-25 20:18 36.04811 -121.34524 30574 ft 416 kts 315°
2026-04-25 20:18 36.07130 -121.36655 30146 ft 416 kts 319°
2026-04-25 20:18 36.09572 -121.38578 29691 ft 415 kts 321°
2026-04-25 20:19 36.11972 -121.40452 29307 ft 412 kts 321°
2026-04-25 20:19 36.14408 -121.42361 28908 ft 424 kts 322°
2026-04-25 20:19 36.16944 -121.44357 28501 ft 437 kts 322°
2026-04-25 20:19 36.19525 -121.46377 28090 ft 440 kts 322°
2026-04-25 20:20 36.22108 -121.48394 27667 ft 438 kts 322°
2026-04-25 20:20 36.24681 -121.50401 27244 ft 436 kts 323°
2026-04-25 20:20 36.27239 -121.52397 26842 ft 434 kts 323°
2026-04-25 20:20 36.29786 -121.54386 26382 ft 430 kts 323°
2026-04-25 20:21 36.32273 -121.56336 25962 ft 427 kts 323°
2026-04-25 20:21 36.34776 -121.58303 25504 ft 424 kts 323°
2026-04-25 20:21 36.37263 -121.60254 25059 ft 422 kts 324°
2026-04-25 20:21 36.39732 -121.62193 24583 ft 419 kts 324°
2026-04-25 20:22 36.42183 -121.64123 24142 ft 416 kts 324°
2026-04-25 20:22 36.43010 -121.64773 23982 ft 415 kts 325°
2026-04-25 20:22 36.47048 -121.67948 23143 ft 411 kts 326°
2026-04-25 20:22 36.49453 -121.69845 22685 ft 408 kts 326°
2026-04-25 20:23 36.51804 -121.71703 22222 ft 405 kts 325°
2026-04-25 20:23 36.54172 -121.73575 21747 ft 401 kts 325°
2026-04-25 20:23 36.56519 -121.75434 21286 ft 398 kts 326°
2026-04-25 20:23 36.58845 -121.77274 20826 ft 395 kts 326°
2026-04-25 20:24 36.61149 -121.79099 20346 ft 391 kts 326°
2026-04-25 20:24 36.63434 -121.80909 19899 ft 388 kts 326°
2026-04-25 20:24 36.65698 -121.82704 19424 ft 384 kts 326°
2026-04-25 20:24 36.67941 -121.84484 18966 ft 380 kts 326°
2026-04-25 20:25 36.70166 -121.86247 18510 ft 378 kts 326°
2026-04-25 20:25 36.72346 -121.87973 18049 ft 375 kts 327°
2026-04-25 20:25 36.74677 -121.89403 17638 ft 373 kts 339°
2026-04-25 20:25 36.77169 -121.90276 17188 ft 371 kts 348°
2026-04-25 20:26 36.79673 -121.90971 16747 ft 367 kts 348°
2026-04-25 20:26 36.82151 -121.91658 16306 ft 363 kts 348°
2026-04-25 20:26 36.84608 -121.92342 15867 ft 360 kts 348°
2026-04-25 20:26 36.87038 -121.93019 15438 ft 356 kts 348°
2026-04-25 20:27 36.89435 -121.93688 15020 ft 352 kts 348°
2026-04-25 20:27 36.91811 -121.94353 14600 ft 348 kts 348°
2026-04-25 20:27 36.94127 -121.95002 14195 ft 344 kts 348°
2026-04-25 20:27 36.96435 -121.95706 13778 ft 340 kts 345°
2026-04-25 20:28 36.98703 -121.96534 13346 ft 339 kts 343°
2026-04-25 20:28 37.00944 -121.97426 12938 ft 338 kts 342°
2026-04-25 20:28 37.03174 -121.98338 12531 ft 336 kts 341°
2026-04-25 20:28 37.05395 -121.99249 12125 ft 335 kts 341°
2026-04-25 20:29 37.07590 -122.00135 11866 ft 326 kts 341°
2026-04-25 20:29 37.09689 -122.00966 11600 ft 308 kts 342°
2026-04-25 20:29 37.11712 -122.01756 11014 ft 302 kts 341°
2026-04-25 20:29 37.13682 -122.02520 10609 ft 293 kts 341°
2026-04-25 20:30 37.15628 -122.03277 10243 ft 293 kts 341°
2026-04-25 20:30 37.17552 -122.04029 9886 ft 294 kts 341°
2026-04-25 20:30 37.19506 -122.04795 9511 ft 294 kts 341°
2026-04-25 20:30 37.21435 -122.05551 9262 ft 287 kts 341°
2026-04-25 20:31 37.23318 -122.06288 8795 ft 279 kts 341°
2026-04-25 20:31 37.25163 -122.07009 8439 ft 278 kts 341°
2026-04-25 20:31 37.27008 -122.07733 8095 ft 278 kts 341°
2026-04-25 20:31 37.28847 -122.08458 7737 ft 277 kts 341°
2026-04-25 20:32 37.30687 -122.09183 7396 ft 276 kts 341°
2026-04-25 20:32 37.32515 -122.09904 7022 ft 274 kts 341°
2026-04-25 20:32 37.34322 -122.10618 6654 ft 270 kts 341°
2026-04-25 20:32 37.36099 -122.11319 6293 ft 265 kts 341°
2026-04-25 20:33 37.37844 -122.12006 5932 ft 260 kts 342°
2026-04-25 20:33 37.39563 -122.12627 5626 ft 254 kts 343°
2026-04-25 20:33 37.41223 -122.13193 5349 ft 247 kts 343°
2026-04-25 20:33 37.41784 -122.13382 5243 ft 245 kts 344°
2026-04-25 20:34 37.44469 -122.14284 4757 ft 235 kts 343°
2026-04-25 20:34 37.46030 -122.14807 4464 ft 229 kts 343°
2026-04-25 20:34 37.47548 -122.15305 4202 ft 223 kts 342°
2026-04-25 20:34 37.49030 -122.15787 3933 ft 218 kts 342°
2026-04-25 20:35 37.50475 -122.16256 3686 ft 210 kts 342°
2026-04-25 20:35 37.51867 -122.16710 3452 ft 204 kts 341°
2026-04-25 20:35 37.53103 -122.17382 3293 ft 189 kts 322°
2026-04-25 20:35 37.54031 -122.18464 3130 ft 177 kts 303°
2026-04-25 20:36 37.54640 -122.19773 2912 ft 170 kts 294°
2026-04-25 20:36 37.55191 -122.21077 2679 ft 167 kts 294°
2026-04-25 20:36 37.55732 -122.22358 2471 ft 164 kts 294°
2026-04-25 20:36 37.56252 -122.23590 2239 ft 154 kts 294°
2026-04-25 20:37 37.56740 -122.24745 2047 ft 145 kts 295°
2026-04-25 20:37 37.57197 -122.25831 1854 ft 136 kts 294°
2026-04-25 20:37 37.57628 -122.26853 1680 ft 132 kts 295°
2026-04-25 20:37 37.58054 -122.27867 1497 ft 131 kts 295°
2026-04-25 20:38 37.58481 -122.28881 1301 ft 131 kts 296°
2026-04-25 20:38 37.58905 -122.29890 1126 ft 130 kts 295°
2026-04-25 20:38 37.59328 -122.30895 942 ft 130 kts 294°
2026-04-25 20:38 37.59752 -122.31904 752 ft 131 kts 294°
2026-04-25 20:39 37.60174 -122.32907 582 ft 128 kts 294°
2026-04-25 20:39 37.60592 -122.33900 403 ft 129 kts 294°
2026-04-25 20:39 37.61004 -122.34881 240 ft 128 kts 294°
2026-04-25 20:39 37.61145 -122.35216 164 ft 129 kts 295°
2026-04-25 20:40 37.61788 -122.36756 17 ft 92 kts 298°
2026-04-25 20:40 37.62006 -122.37277 16 ft 43 kts 298°
2026-04-25 20:40 37.62140 -122.37598 19 ft 41 kts 296°
2026-04-25 20:40 37.62211 -122.37903 21 ft 34 kts 274°
2026-04-25 20:41 37.62227 -122.38086 24 ft 7 kts 276°
2026-04-25 20:41 37.62227 -122.38088 24 ft 0 kts 276°
2026-04-25 20:41 37.62227 -122.38089 27 ft 0 kts 276°
2026-04-25 20:41 37.62229 -122.38108 25 ft 5 kts 276°
2026-04-25 20:42 37.62229 -122.38182 23 ft 12 kts 265°
2026-04-25 20:42 37.62188 -122.38288 20 ft 12 kts 220°
2026-04-25 20:42 37.62125 -122.38322 21 ft 9 kts 193°
2026-04-25 20:42 37.62072 -122.38281 23 ft 10 kts 119°
2026-04-25 20:43 37.62034 -122.38188 22 ft 14 kts 117°
2026-04-25 20:43 37.61982 -122.38063 21 ft 17 kts 118°
2026-04-25 20:43 37.61909 -122.37941 21 ft 17 kts 139°
2026-04-25 20:43 37.61803 -122.37874 18 ft 19 kts 167°
2026-04-25 20:44 37.61705 -122.37933 17 ft 15 kts 219°
2026-04-25 20:44 37.61604 -122.38005 14 ft 17 kts 207°
2026-04-25 20:44 37.61491 -122.38080 14 ft 18 kts 208°
2026-04-25 20:44 37.61391 -122.38147 14 ft 16 kts 208°
2026-04-25 20:45 37.61346 -122.38218 14 ft 12 kts 276°
2026-04-25 20:45 37.61371 -122.38286 14 ft 8 kts 296°
2026-04-25 20:45 37.61394 -122.38302 14 ft 3 kts 14°
2026-04-25 20:45 37.61416 -122.38287 15 ft 4 kts 28°
2026-04-25 20:46 37.61431 -122.38276 15 ft 2 kts 29°
2026-04-25 20:46 37.61436 -122.38273 14 ft 0 kts 29°